Terug naar catalogus

STARLINK-31950

ActiefCommunicatieVLEO
NORAD 59863·PAYLOAD·🇺🇸 United States

Gelanceerd May 24, 2024 vanaf Cape Canaveral Space Force Station

Loading…

Volgende Passages (komende 24 uur)

TLE

VersSource: CelesTrak SupGP

Epoch: Sep 14, 2026, 21:27 UTC

1 59863C 24098F   26257.89423611  .00001037  00000+0  37573-4 0  2576
2 59863  43.0002 289.5627 0001809 268.3710  13.4568 15.27569959    12

Volg STARLINK-31950 in realtime met AllMySat

Download on the App Store